This is the latest recevied weather packets stored in our database for station/object W0WC. If no packets are shown the sender has not sent any weather packets the latest 10 day(s).
| Time | Temp. | Humidity | Pressure | Rain* | Wind** | Luminosity | Snow |
|---|---|---|---|---|---|---|---|
| 1777469289 | 10° C | 81% | 1020.8 hPa | 0 mm | - | 83 W/m² | - |
| 1777468985 | 9.44° C | 83% | 1020.8 hPa | 0 mm | - | 100 W/m² | - |
| 1777468680 | 9.44° C | 84% | 1020.8 hPa | 0 mm | - | 86 W/m² | - |
| 1777468377 | 8.89° C | 85% | 1020.6 hPa | 0 mm | - | 76 W/m² | - |
| 1777468073 | 8.89° C | 87% | 1020.6 hPa | 0 mm | - | 70 W/m² | - |
| 1777467770 | 8.89° C | 88% | 1020.5 hPa | 0 mm | - | 63 W/m² | - |
| 1777467470 | 8.89° C | 89% | 1020.5 hPa | 0 mm | - | 59 W/m² | - |
| 1777467166 | 8.33° C | 90% | 1020.5 hPa | 0 mm | - | 55 W/m² | - |
| 1777466863 | 8.33° C | 91% | 1020.3 hPa | 0 mm | - | 51 W/m² | - |
| 1777466561 | 8.33° C | 93% | 1020.2 hPa | 0 mm | - | 47 W/m² | - |
| 1777466257 | 8.33° C | 94% | 1020.3 hPa | 0 mm | - | 43 W/m² | - |
| 1777465953 | 7.78° C | 95% | 1020.3 hPa | 0 mm | - | 40 W/m² | - |
| 1777465650 | 7.78° C | 95% | 1020.2 hPa | 0 mm | - | 37 W/m² | - |
| 1777465346 | 7.78° C | 95% | 1020 hPa | 0 mm | - | 31 W/m² | - |
| 1777465044 | 7.22° C | 95% | 1020 hPa | 0 mm | - | 27 W/m² | - |
| 1777464740 | 7.22° C | 95% | 1020.1 hPa | 0 mm | - | 26 W/m² | - |
| 1777464436 | 7.22° C | 95% | 1020 hPa | 0 mm | - | 23 W/m² | - |
| 1777464132 | 7.22° C | 95% | 1019.8 hPa | 0 mm | - | 21 W/m² | - |
| 1777463832 | 7.22° C | 95% | 1019.8 hPa | 0 mm | - | 18 W/m² | - |
| 1777463527 | 7.22° C | 95% | 1019.7 hPa | 0 mm | - | 15 W/m² | - |
| 1777463223 | 7.22° C | 95% | 1019.6 hPa | 0 mm | - | 13 W/m² | - |
| 1777462919 | 7.22° C | 94% | 1019.7 hPa | 0 mm | - | 10 W/m² | - |
| 1777462615 | 7.22° C | 94% | 1019.4 hPa | 0 mm | - | 7 W/m² | - |
| 1777462310 | 7.22° C | 94% | 1019.4 hPa | 0 mm | - | 4 W/m² | - |
| 1777462006 | 7.22° C | 94% | 1019.3 hPa | 0 mm | - | 3 W/m² | - |
* Rain latest hour (hover to see other rain measurements)
** Current wind speed in m/s (hover to see current wind gust speed)